Location: Foligno
(42.9600°N, 12.7050°E)
Time: 15:51:26
(UTC+02:00)

ISS - Pass Details

Date: 16 July 2018
Orbit: 402 x 408 km, 51.6° (Epoch: 21 July)

Event Time Altitude Azimuth Distance (km) Brightness Sun altitude
Exits shadow 00:59:22 19° 42° (NE) 1,038 -1.3 -25.5°
Drops below altitude 10° 01:00:29 10° 49° (NE) 1,469 -0.6 -25.5°
Sets 01:02:38 0° 55° (NE) 2,333 0.4 -25.6°
